Home   Weather   Tijuana   Past weeks
Flag for Mexico

Past Weather in Tijuana, Baja California, Mexico — Yesterday and Last 2 Weeks

Now
64 °F

More clouds than sun.


Feels Like: 64 °F
Forecast: 69 / 61 °F
Wind: 8 mph from West

Location: Tijuana International Airport

Current Time: Jun 17, 2019 at 4:23:36 pm

Latest Report: Jun 17, 2019 at 3:41 pm


Visibility: 7 mi

Pressure: 29.94 "Hg

Humidity: 78%

Dew Point: 57 °F

Location of TijuanaLocation

Past Weather in Tijuana — Graph

°F

Tijuana Temperature Yesterday

Maximum temperature yesterday: 70 °F (at 12:45 pm)
Minimum temperature yesterday: 63 °F (at 12:58 am)
Average temperature yesterday: 64 °F

High & Low Weather Summary for the Past Weeks

 TemperatureHumidityPressure
High86 °F (Jun 10, 11:42 am)100% (Jun 4, 6:53 am)30.05 "Hg (Jun 4, 6:53 am)
Low57 °F (Jun 9, 5:50 am)35% (Jun 10, 11:42 am)29.88 "Hg (Jun 14, 6:50 am)
Average65 °F79%29.96 "Hg
* Reported Jun 2 2:43 pm — Jun 17 2:44 pm, Tijuana. Weather by CustomWeather, © 2019

Note: Actual official high and low records may vary slightly from our data, if they occured in-between our weather recording intervals... More about our weather records

Advertising

Tijuana Weather History for the Previous 24 Hours

Scroll right to see more
 ConditionsComfort  
Time TempWeatherWind HumidityBarometerVisibility
2:44 pm
Mon, Jun 17
66 °FOvercast.8 mph73%29.95 "Hg7 mi
1:44 pm64 °FOvercast.8 mph73%29.98 "Hg7 mi
12:47 pm64 °FMore clouds than sun.10 mph78%29.96 "Hg6 mi
11:43 am64 °FMore clouds than sun.8 mph83%29.96 "Hg5 mi
10:51 am64 °FMore clouds than sun.9 mph83%29.96 "Hg5 mi
9:42 am63 °FOvercast.6 mph83%29.94 "Hg5 mi
8:44 am61 °FOvercast.5 mph88%29.94 "Hg4 mi
7:45 am61 °FOvercast.6 mph83%29.92 "Hg5 mi
6:41 am61 °FOvercast.5 mph88%29.91 "Hg5 mi
5:44 am61 °FOvercast.No wind88%29.90 "Hg5 mi
4:41 am61 °FOvercast.No wind88%29.90 "Hg5 mi
3:43 am61 °FOvercast.No wind88%29.90 "Hg5 mi
2:41 am61 °FDrizzle. Overcast.3 mph88%29.90 "Hg5 mi
1:40 am61 °FDrizzle. Overcast.5 mph88%29.92 "Hg5 mi
12:43 am63 °FOvercast.3 mph83%29.91 "Hg6 mi
11:41 pm
Sun, Jun 16
63 °FOvercast.6 mph83%29.92 "Hg6 mi
10:43 pm63 °FOvercast.No wind83%29.93 "Hg6 mi
9:41 pm63 °FDrizzle. Overcast.No wind83%29.93 "Hg6 mi
8:41 pm63 °FDrizzle. Overcast.6 mph83%29.92 "Hg6 mi
7:44 pm63 °FOvercast.9 mph83%29.90 "Hg6 mi
6:40 pm63 °FOvercast.6 mph88%29.89 "Hg7 mi
5:40 pm64 °FOvercast.8 mph83%29.89 "Hg7 mi
4:42 pm64 °FOvercast.13 mph83%29.92 "Hg7 mi
Weather by CustomWeather, © 2019

See weather overview